Погода в Бережном

Россия / Белгородская область     50°31′15″N   38°52′02″E
темп.,
°C
ветер,
м/с
пор.,
м/с
влажн.,
%
обл.,
%
осадки,
мм/ч
давл.,
гПа
погр.,
м
24 октября, вс
вс2400:00+6з38635 0.0 1018195
03:00+3з38755 0.0 1019178
06:00+2з368131 0.0 1020115
09:00+5з586625 0.0 1021375
12:00+9зсз674721 0.0 10211413
15:00+10зсз574184 0.0 10201768
18:00+6зсз4957100 0.0 1021308
21:00+4сз496553 0.1 1022388
25 октября, пн
пн2500:00+4сз597971 0.0 1023766
03:00+1ссз510825 0.0 1025453
06:000ссз49825 0.0 1028377
09:00+1ссз58735 0.0 1030510
12:00+5с564164 0.0 10311093
15:00+6с453611 0.0 10301243
18:00+2ссз22485 0.0 103219
21:00+1сз11545 0.0 103310
26 октября, вт
вт2600:000зюз11590 0.0 103310
03:00−1зюз22630 0.0 103315
06:00−1зюз22675 0.0 103319
09:00+2зюз34555 0.0 1033173
12:00+7зюз453928 0.0 1032697
15:00+8зюз453242 0.0 1031858
18:00+4юз33435 0.0 103131
21:00+3юз34465 0.0 103057
27 октября, ср
ср2700:00+2юз35485 0.0 103075
03:00+1юз35485 0.0 103077
06:000юз35481 0.0 102980
09:00+3юз47383 0.0 1029214
12:00+9юз57250 0.0 1027657
15:00+10юз57210 0.0 1025905
18:00+5юз333273 0.0 102537
21:00+4юз3435100 0.0 102460
28 октября, чт
чт2800:00+4з3438100 0.0 102462
03:00+3зсз32465 0.0 102423
06:00+2сз227339 0.0 102420
09:00+5сз34725 0.0 1026192
12:00+9сз34585 0.0 1025825
15:00+10зсз345311 0.0 10241105
18:00+7з2267100 0.0 102526
21:00+6зюз3668100 0.0 1024114